Hourly Data Report for October 03, 2013

All times are specified in Local Standard Time (LST). Add 1 hour to adjust for Daylight Saving Time where and when it is observed.

GRISE FIORD CLIMATE
NUNAVUT

76°25'22.040" N
82°54'08.020" W
44.50 m
2402351
71971
NGC

Download Data

Hourly Data (October 2013)
Hourly Data Report for October 3, 2013
Temp Definition
°C
Dew Point Temp Definition
°C
Rel Hum Definition
%
Wind Dir Definition
10's deg

Wind Spd Definition
km/h
Visibility Definition
km
Stn Press Definition
kPa
Hmdx Definition


Wind Chill Definition


Weather Definition


TIME
00:00 -6.4 -13.1 59 12 7   101.14   -10 LegendNANA
01:00 -6.4 -13.7 56 36 35   101.13   -15 LegendNANA
02:00 -6.4 -14.1 54 2 24   101.14   -14 LegendNANA
03:00 -6.5 -14.1 55 33 20   101.16   -13 LegendNANA
04:00 -6.6 -14.4 54 34 19   101.20   -13 LegendNANA
05:00 -6.7 -14.7 53 36 15   101.17   -13 LegendNANA
06:00 -7.1 -14.8 54 7 20   101.17   -14 LegendNANA
07:00 -7.9 -15.0 57 3 22   101.17   -16 LegendNANA
08:00 -8.3 -15.1 58 3 44   101.11   -19 LegendNANA
09:00 -7.7 -14.5 58 2 30   101.19   -17 LegendNANA
10:00 -7.8 -14.3 60 36 22   101.18   -15 LegendNANA
11:00 -7.4 -14.4 57 6 22   101.13   -15 LegendNANA
12:00 -7.4 -14.2 58 33 24   101.14   -15 LegendNANA
13:00 -7.5 -14.5 57 35 28   101.12   -16 LegendNANA
14:00 -7.0 -14.5 55 2 32   101.09   -16 LegendNANA
15:00 -7.4 -13.8 60 1 43   101.14   -18 LegendNANA
16:00 -7.6 -14.7 57 2 35   101.17   -17 LegendNANA
17:00 -7.7 -14.4 59 16 11   101.18   -13 LegendNANA
18:00 -8.2 -15.3 57 32 17   101.22   -15 LegendNANA
19:00 -8.4 -15.3 57 13 11   101.21   -14 LegendNANA
20:00 -8.4 -15.5 57 1 37   101.19   -18 LegendNANA
21:00 -8.4 -15.6 56 4 50   101.10   -20 LegendNANA
22:00 -8.9 -15.6 58 2 50   101.09   -20 LegendNANA
23:00 -8.5 -15.7 56 2 44   101.10   -19 LegendNANA

Notes on Data Quality.

Legend

  • E = Estimated
  • M = Missing
  • NA = Not Available
  • ‡ = Partner data that is not subject to review by the National Climate Archives
Date modified: